Tracking 27420 objects as of 28-May-2023
HD Live streaming from Space Station
objects crossing your sky now

STARLINK-6228

Track STARLINK-6228 now!
10-day predictions
STARLINK-6228 is classified as:


NORAD ID: 56543
Int'l Code: 2023-065AS
Perigee: 360.9 km
Apogee: 363.4 km
Inclination: 43.0 °
Period: 91.6 minutes
Semi major axis: 6733 km
RCS: Unknown
Launch date: May 14, 2023
Source: United States (US)
Launch site: AIR FORCE EASTERN TEST RANGE (AFETR)
Your satellite tracking list
Your tracking list is empty




NASA's NSSDC Master Catalog

Two Line Element Set (TLE):
1 56543U 23065AS  23147.87253319  .00003117  00000-0  27208-4 0  9999
2 56543  43.0004   1.8241 0001898 259.7702 100.2951 15.71355936  3365
Source of the keplerian elements: AFSPC